ICEYE-X49

导读 | 豆包AI

ICEYE-X49是芬兰冰眼(ICEYE)公司于2024年12月21日发射的合成孔径雷达(SAR)遥感卫星,属于ICEYE星座扩建计划的一部分。作为小型轻量化SAR卫星,它具备高分辨率成像能力,最高可达25厘米分辨率,支持聚束、条带、扫描等多种成像模式。该卫星主要服务于自然灾害监测、溢油防控、海域态势感知、海冰观测及地表变化监测等领域,凭借快速重访和全天时全天候观测能力,能为全球用户提供及时精准的地理空间信息,进一步扩展了ICEYE星座的持续监测覆盖范围与服务能力。

基本信息
目录编号:
62384
目录名称:
ICEYE-X49
国际标识:
2024-247H
轨道中心:
EARTH
卫星名称:
ICEYE-X49
卫星全名:
ICEYE-X49
卫星状态:
在轨 (已飞行469 天)
发射日期:
2024-12-21 UTC
国别 :
(FI)
星等 :
--
轨道信息
数据来源 国际轨道数据
星历时间: 2026-04-03T21:05:06+0800
14小时前
查看轨道信息
半长轴: 6907.162km
偏心率: 0.0001263
轨道倾角: 44.999°
近地点辐角 306.017°
升交点赤经 35.677°
平近点角 54.059°
近地点: 528.152km
远地点: 529.898km
周期: 95.216分钟
每日圈数: 15.123536
详细信息
使用方式:
暂无
2D轨道图
3D轨道图
轨道高度分析图
轨道倾角分析图
轨道综合分析图
查看轨道综合分析图